Flag for Ecuador

Past Weather in Guayaquil, Ecuador — Yesterday and Last 2 Weeks

Now
82 °F

Passing clouds.


Feels Like: 86 °F
Forecast: 85 / 71 °F
Wind: 8 mph from South

Location: Guayaquil / Simon Bolivar
Current Time: Sep 18, 2020 at 7:04:18 pm
Latest Report: Sep 18, 2020 at 6:00 pm
Visibility: N/A
Pressure29.83 "Hg
Humidity: 66%
Dew Point: 70 °F
Location of GuayaquilLocation

Past Weather in Guayaquil — Graph

°F

Guayaquil Temperature Yesterday

Maximum temperature yesterday: 86 °F (at 3:00 pm)
Minimum temperature yesterday: 73 °F (at 12:00 am)
Average temperature yesterday: 78 °F

High & Low Weather Summary for the Past Weeks

 TemperatureHumidityPressure
High91 °F (Sep 8, 3:00 pm)83% (Sep 4, 1:00 am)29.98 "Hg (Sep 4, 1:00 am)
Low70 °F (Sep 5, 2:00 am)46% (Sep 8, 3:00 pm)29.74 "Hg (Sep 8, 4:00 pm)
Average77 °F71%29.87 "Hg
* Reported Sep 3 6:00 pm — Sep 18 6:00 pm, Guayaquil. Weather by CustomWeather, © 2020

Note: Actual official high and low records may vary slightly from our data, if they occured in-between our weather recording intervals... More about our weather records

Guayaquil Weather History for the Previous 24 Hours

Scroll right to see more
 ConditionsComfort  
Time TempWeatherWind HumidityBarometerVisibility
6:00 pm
Fri, Sep 18
82 °FPassing clouds.8 mph66%29.83 "HgN/A
5:00 pm84 °FPassing clouds.8 mph62%29.80 "HgN/A
4:00 pm84 °FPartly sunny.7 mph58%29.80 "HgN/A
3:00 pm86 °FPassing clouds.9 mph55%29.83 "HgN/A
2:00 pm84 °FPassing clouds.9 mph62%29.86 "HgN/A
1:00 pm84 °FScattered clouds.8 mph62%29.89 "HgN/A
12:00 pm82 °FBroken clouds.8 mph62%29.92 "HgN/A
11:00 am81 °FPartly sunny.5 mph66%29.92 "HgN/A
10:00 am77 °FBroken clouds.6 mph69%29.95 "HgN/A
9:00 am75 °FBroken clouds.8 mph74%29.95 "HgN/A
8:00 am75 °FBroken clouds.10 mph74%29.92 "HgN/A
7:00 am73 °FPartly sunny.10 mph74%29.89 "HgN/A
6:00 am72 °FPassing clouds.12 mph83%29.89 "HgN/A
5:00 am72 °FPassing clouds.10 mph83%29.89 "HgN/A
4:00 am72 °FPassing clouds.14 mph83%29.89 "HgN/A
3:00 am72 °FPassing clouds.8 mph83%29.86 "HgN/A
2:00 am73 °FPassing clouds.10 mph78%29.89 "HgN/A
1:00 am73 °FLight rain. Passing clouds.12 mph78%29.92 "HgN/A
12:00 am73 °FClear.10 mph78%29.92 "Hg10 mi
11:00 pm
Thu, Sep 17
73 °FClear.14 mph78%29.92 "Hg10 mi
10:00 pm75 °FClear.13 mph74%29.89 "Hg10 mi
9:00 pm77 °FClear.13 mph74%29.86 "Hg10 mi
8:00 pm79 °FClear.13 mph74%29.86 "Hg10 mi
7:00 pm81 °FPartly cloudy.9 mph66%29.83 "HgN/A
Weather by CustomWeather, © 2020

See weather overview